Anula, Australia

12:41 AM ACST on June 24, 2017 (GMT +0930)
Anula

Weather History for 94120 - September, 2013

Change the Weather History Date:

Sunday, September 1, 2013

  Actual Average Record
Temperature  
Mean Temperature 83 °F -  
Max Temperature 91 °F 91 °F - ()
Min Temperature 75 °F 74 °F - ()
Cooling Degree Days 18    
Growing Degree Days 33 (Base 50)    
Moisture  
Dew Point 67 °F    
Average Humidity 63    
Maximum Humidity 89    
Minimum Humidity 21    
Precipitation  
Precipitation 0.00 in 0.03 in - ()
Sea Level Pressure  
Sea Level Pressure 29.94 in    
Wind  
Wind Speed 8 mph ()    
Max Wind Speed 18 mph    
Max Gust Speed -    
Visibility 9.3 miles    
Events      
T = Trace of Precipitation, MM = Missing Value Source: Averaged Metar Reports

Daily Weather History Graph

Daily Weather History Graph

Search for Another Location

Airport or City:

Trip Planner

Search our weather history database for the weather conditions in past years. The results will help you decide how hot, cold, wet, or windy it might be!

Date:

Astronomy

Sep. 01, 2013 Rise Set
Actual Time 6:50 AM ACST 6:42 PM ACST
Civil Twilight 6:29 AM ACST 7:04 PM ACST
Nautical Twilight 6:04 AM ACST 7:28 PM ACST
Astronomical Twilight 5:39 AM ACST 7:53 PM ACST
Moon 3:25 AM ACST (9/1) 3:15 PM ACST (9/1)
Length of Visible Light 12h 34m
Length of Day
11h 52m
Waning Crescent, 18% of the Moon is Illuminated
Sep 1
Waning Crescent
Sep 5
New
Sep 13
First Quarter
Sep 19
Full
Sep 27
Last Quarter

Hourly Weather History & Observations

Time (ACST) Temp. Heat Index Dew Point Humidity Pressure Visibility Wind Dir Wind Speed Gust Speed Precip Events Conditions
12:00 AM 79 °F - 70 °F 66% 29.96 in 19 mi WSW 6.9 mph - -   Partly Cloudy
12:00 AM 78.8 °F - 69.8 °F 74% 29.95 in 6.2 mi SW 6.9 mph - N/A   Scattered Clouds
12:30 AM 79 °F - 70 °F 67% 29.97 in - SW 5.8 mph - -  
12:30 AM 78.8 °F - 69.8 °F 74% 29.95 in 6.2 mi SW 5.8 mph - N/A   Partly Cloudy
1:00 AM 78.8 °F - 71.6 °F 78% 29.95 in 6.2 mi SSW 5.8 mph - N/A   Partly Cloudy
1:30 AM 77.0 °F - 71.6 °F 83% 29.95 in 6.2 mi SSW 6.9 mph - N/A   Partly Cloudy
2:00 AM 77.0 °F - 71.6 °F 83% 29.95 in 6.2 mi South 5.8 mph - N/A   Partly Cloudy
2:30 AM 77.0 °F - 71.6 °F 83% 29.95 in 6.2 mi South 4.6 mph - N/A   Partly Cloudy
3:00 AM 76 °F - 72 °F 82% 29.95 in 19 mi South 4.6 mph - -   Partly Cloudy
3:00 AM 77.0 °F - 71.6 °F 83% 29.95 in 6.2 mi South 4.6 mph - N/A   Partly Cloudy
3:30 AM 75.2 °F - 71.6 °F 89% 29.95 in 6.2 mi ESE 4.6 mph - N/A   Partly Cloudy
4:00 AM 75.2 °F - 71.6 °F 89% 29.95 in 6.2 mi SSE 5.8 mph - N/A   Partly Cloudy
4:30 AM 75.2 °F - 71.6 °F 89% 29.95 in 6.2 mi ESE 8.1 mph - N/A   Partly Cloudy
5:00 AM 75.2 °F - 71.6 °F 89% 29.95 in 6.2 mi ESE 10.4 mph - N/A   Mostly Cloudy
5:30 AM 75.2 °F - 71.6 °F 89% 29.95 in 6.2 mi East 10.4 mph - N/A   Scattered Clouds
6:00 AM 76 °F - 70 °F 78% 29.96 in 19 mi East 6.9 mph - -   Partly Cloudy
6:00 AM 77.0 °F - 69.8 °F 78% 29.95 in 6.2 mi East 6.9 mph - N/A   Partly Cloudy
6:30 AM 75 °F - 71 °F 82% 29.97 in - ENE 5.8 mph - -  
6:30 AM 75.2 °F - 69.8 °F 83% 29.98 in 6.2 mi ENE 5.8 mph - N/A   Partly Cloudy
7:00 AM 75.2 °F - 69.8 °F 83% 29.98 in 6.2 mi East 4.6 mph - N/A   Partly Cloudy
7:30 AM 75.2 °F - 71.6 °F 89% 29.98 in - ENE 4.6 mph - N/A   Clear
8:00 AM 78.8 °F - 71.6 °F 78% 29.98 in - ENE 6.9 mph - N/A   Clear
8:30 AM 80.6 °F 84.6 °F 71.6 °F 74% 29.98 in - NE 8.1 mph - N/A   Clear
9:00 AM 82 °F - 71 °F 63% 30.01 in 19 mi NE 8.1 mph - -   Partly Cloudy
9:00 AM 82.4 °F 87.2 °F 71.6 °F 70% 30.01 in 6.2 mi NE 8.1 mph - N/A   Partly Cloudy
9:30 AM 83 °F - 71 °F 60% 30.02 in - NE 10.4 mph - -  
9:30 AM 82.4 °F 87.2 °F 71.6 °F 70% 30.01 in 6.2 mi NE 10.4 mph - N/A   Partly Cloudy
10:00 AM 86.0 °F 89.4 °F 68.0 °F 55% 30.01 in 6.2 mi ESE 12.7 mph - N/A   Scattered Clouds
10:30 AM 86.0 °F 87.3 °F 64.4 °F 48% 30.01 in 6.2 mi East 16.1 mph - N/A   Partly Cloudy
11:00 AM 87.8 °F 88.5 °F 62.6 °F 43% 30.01 in 6.2 mi ENE 15.0 mph - N/A   Partly Cloudy
11:30 AM 89.6 °F 89.5 °F 60.8 °F 38% 29.98 in 6.2 mi East 15.0 mph - N/A   Partly Cloudy
12:00 PM 89.6 °F 88.9 °F 59.0 °F 36% 29.98 in - East 10.4 mph - N/A   Clear
12:30 PM 91 °F - 56 °F 21% 29.95 in - ENE 10.4 mph - -  
12:30 PM 91.4 °F 89.4 °F 55.4 °F 29% 29.95 in - ENE 10.4 mph - N/A   Clear
1:00 PM 91.4 °F 89.1 °F 53.6 °F 28% 29.92 in - NW 9.2 mph - N/A   Clear
1:30 PM 87.8 °F 91.4 °F 68.0 °F 52% 29.92 in - NW 15.0 mph - N/A   Clear
2:00 PM 87.8 °F 89.4 °F 64.4 °F 46% 29.89 in - NNW 16.1 mph - N/A   Clear
2:30 PM 87.8 °F 89.4 °F 64.4 °F 46% 29.89 in - North 18.4 mph - N/A   Clear
3:00 PM 89 °F - 64 °F 33% 29.87 in 19 mi North 16.1 mph - -   Smoke
3:00 PM 89.6 °F 91.1 °F 64.4 °F 43% 29.86 in - North 16.1 mph - N/A   Clear
3:30 PM 87.8 °F 89.4 °F 64.4 °F 46% 29.86 in - North 15.0 mph - N/A   Clear
4:00 PM 87.8 °F 89.4 °F 64.4 °F 46% 29.86 in - North 15.0 mph - N/A   Clear
4:30 PM 87.8 °F 88.5 °F 62.6 °F 43% 29.86 in - North 16.1 mph - N/A   Clear
5:00 PM 87.8 °F 88.5 °F 62.6 °F 43% 29.86 in - North 12.7 mph - N/A   Clear
5:30 PM 86.0 °F 86.6 °F 62.6 °F 45% 29.86 in - North 15.0 mph - N/A   Clear
6:00 PM 85 °F - 62 °F 36% 29.88 in 19 mi North 15.0 mph - -   Smoke
6:00 PM 86.0 °F 86.6 °F 62.6 °F 45% 29.86 in - North 15.0 mph - N/A   Clear
6:30 PM 83 °F - 62 °F 40% 29.89 in - NNE 12.7 mph - -  
6:30 PM 82.4 °F 83.4 °F 62.6 °F 51% 29.89 in - NNE 12.7 mph - N/A   Clear
7:00 PM 82.4 °F 83.9 °F 64.4 °F 54% 29.92 in - NNE 10.4 mph - N/A   Clear
7:30 PM 80.6 °F 82.7 °F 66.2 °F 61% 29.92 in - NNE 8.1 mph - N/A   Clear
8:00 PM 80.6 °F 82.3 °F 64.4 °F 58% 29.92 in - East 4.6 mph - N/A   Clear
8:30 PM 78.8 °F - 66.2 °F 65% 29.95 in - East 4.6 mph - N/A   Clear
9:00 PM 78 °F - 65 °F 56% 29.95 in 19 mi ESE 4.6 mph - -   Smoke
9:00 PM 78.8 °F - 64.4 °F 61% 29.95 in - ESE 4.6 mph - N/A   Clear
9:30 PM 77 °F - 65 °F 59% 29.96 in - ESE 5.8 mph - -  
9:30 PM 77.0 °F - 66.2 °F 69% 29.95 in - ESE 5.8 mph - N/A   Clear
10:00 PM 75.2 °F - 66.2 °F 73% 29.95 in - ESE 5.8 mph - N/A   Clear
10:30 PM 75.2 °F - 66.2 °F 73% 29.98 in - East 6.9 mph - N/A   Clear
11:00 PM 75.2 °F - 66.2 °F 73% 29.98 in - East 6.9 mph - N/A   Clear
11:30 PM 75.2 °F - 66.2 °F 73% 29.98 in 6.2 mi ENE 6.9 mph - N/A   Partly Cloudy